Time,TemperatureF,DewpointF,PressureIn,WindDirection,WindDirectionDegrees,WindSpeedMPH,WindSpeedGustMPH,Humidity,HourlyPrecipIn,Conditions,Clouds,dailyrainin,SoftwareType,DateUTC
2013-06-01 00:01:00,73.5,69.1,30.11,SW,232,0.0,0.0,86,0.00,,,0.00,Wunderground v.1.15,2013-06-01 04:01:00,
2013-06-01 00:02:00,73.6,68.8,30.10,SW,232,0.0,0.0,85,0.00,,,0.00,Wunderground v.1.15,2013-06-01 04:02:00,
2013-06-01 00:03:00,73.6,68.8,30.11,SW,232,0.0,0.0,85,0.00,,,0.00,Wunderground v.1.15,2013-06-01 04:03:00,
2013-06-01 00:04:00,73.7,68.9,30.10,SW,232,0.0,0.0,85,0.00,,,0.00,Wunderground v.1.15,2013-06-01 04:04:00,
2013-06-01 00:06:00,73.8,69.0,30.10,SW,232,0.0,0.0,85,0.00,,,0.00,Wunderground v.1.15,2013-06-01 04:06:00,
2013-06-01 00:11:00,74.1,69.0,30.10,SW,230,0.0,0.0,84,0.00,,,0.00,Wunderground v.1.15,2013-06-01 04:11:00,
2013-06-01 00:16:00,74.3,69.1,30.10,SW,235,0.0,0.0,84,0.00,,,0.00,Wunderground v.1.15,2013-06-01 04:16:00,
2013-06-01 00:22:00,74.5,69.0,30.10,SW,235,0.0,0.0,83,0.00,,,0.00,Wunderground v.1.15,2013-06-01 04:22:00,
2013-06-01 00:27:00,74.6,69.1,30.10,SW,233,0.0,0.0,83,0.00,,,0.00,Wunderground v.1.15,2013-06-01 04:27:00,
2013-06-01 00:32:00,74.8,68.9,30.10,SW,230,0.0,1.0,82,0.00,,,0.00,Wunderground v.1.15,2013-06-01 04:32:00,
2013-06-01 00:38:00,75.0,69.1,30.10,WSW,238,0.0,1.0,82,0.00,,,0.00,Wunderground v.1.15,2013-06-01 04:38:00,
2013-06-01 00:44:00,75.0,69.1,30.10,WSW,238,0.0,0.0,82,0.00,,,0.00,Wunderground v.1.15,2013-06-01 04:44:00,
2013-06-01 00:49:00,75.0,69.1,30.10,WSW,238,0.0,0.0,82,0.00,,,0.00,Wunderground v.1.15,2013-06-01 04:49:00,
2013-06-01 00:55:00,74.8,68.9,30.10,WSW,238,0.0,0.0,82,0.00,,,0.00,Wunderground v.1.15,2013-06-01 04:55:00,
2013-06-01 01:00:00,74.6,68.7,30.10,WSW,238,0.0,0.0,82,0.00,,,0.00,Wunderground v.1.15,2013-06-01 05:00:00,
2013-06-01 01:05:00,74.4,68.5,30.10,WSW,239,0.0,0.0,82,0.00,,,0.00,Wunderground v.1.15,2013-06-01 05:05:00,
2013-06-01 01:11:00,74.3,68.4,30.10,WSW,238,0.0,0.0,82,0.00,,,0.00,Wunderground v.1.15,2013-06-01 05:11:00,
2013-06-01 01:16:00,74.3,68.4,30.10,WSW,238,0.0,0.0,82,0.00,,,0.00,Wunderground v.1.15,2013-06-01 05:16:00,
2013-06-01 01:21:00,74.2,68.3,30.10,WSW,238,0.0,0.0,82,0.00,,,0.00,Wunderground v.1.15,2013-06-01 05:21:00,
2013-06-01 01:27:00,74.2,68.3,30.10,WSW,256,0.0,0.0,82,0.00,,,0.00,Wunderground v.1.15,2013-06-01 05:27:00,
2013-06-01 01:33:00,74.2,68.3,30.09,WSW,257,0.0,0.0,82,0.00,,,0.00,Wunderground v.1.15,2013-06-01 05:33:00,
2013-06-01 01:38:00,74.1,68.3,30.10,WNW,288,0.0,0.0,82,0.00,,,0.00,Wunderground v.1.15,2013-06-01 05:38:00,
2013-06-01 01:44:00,74.0,68.2,30.10,WNW,288,0.0,0.0,82,0.00,,,0.00,Wunderground v.1.15,2013-06-01 05:44:00,
2013-06-01 01:49:00,73.9,68.1,30.09,WNW,288,0.0,0.0,82,0.00,,,0.00,Wunderground v.1.15,2013-06-01 05:49:00,
2013-06-01 01:54:00,73.8,68.3,30.09,WNW,297,0.0,0.0,83,0.00,,,0.00,Wunderground v.1.15,2013-06-01 05:54:00,
2013-06-01 02:00:00,73.6,68.1,30.10,WNW,297,0.0,0.0,83,0.00,,,0.00,Wunderground v.1.15,2013-06-01 06:00:00,
2013-06-01 02:05:00,73.5,68.0,30.09,WNW,300,0.0,0.0,83,0.00,,,0.00,Wunderground v.1.15,2013-06-01 06:05:00,
2013-06-01 02:11:00,73.3,67.8,30.10,WNW,300,0.0,0.0,83,0.00,,,0.00,Wunderground v.1.15,2013-06-01 06:11:00,
2013-06-01 02:16:00,73.2,67.7,30.09,WNW,300,0.0,0.0,83,0.00,,,0.00,Wunderground v.1.15,2013-06-01 06:16:00,